Location: Nena
(32.3271°N, 96.8558°W)
Time: 18:15:12
(UTC+00:00)

DMSP B5D2-2 - Visible Passes

Search period start: 20 March 2023 00:00
Search period end: 30 March 2023 00:00
Orbit: 788 x 805 km, 98.3° (Epoch: 19 March)

Date Brightness Start Highest point End Pass type
(mag) Time Alt. Az. Time Alt. Az. Time Alt. Az.
20 Mar 4.2 11:16:58 10° SSE 11:22:12 78° ENE 11:27:27 10° N visible
21 Mar 7.0 01:16:25 10° NNW 01:19:53 18° WNW 01:23:20 10° WSW visible
21 Mar 5.4 10:49:55 10° SE 10:54:47 40° ENE 10:59:39 10° N visible
22 Mar 6.5 10:23:32 10° ESE 10:27:27 22° ENE 10:31:24 10° NNE visible
22 Mar 4.6 12:02:02 10° SSW 12:06:50 36° W 12:11:38 10° NNW visible
23 Mar 7.3 09:58:33 10° E 10:00:15 12° ENE 10:01:58 10° NE visible
23 Mar 4.0 11:34:02 10° S 11:39:15 71° WSW 11:44:28 10° NNW visible
24 Mar 7.3 01:34:45 10° NW 01:36:43 12° WNW 01:38:39 10° W visible
24 Mar 4.6 11:06:36 10° SSE 11:11:45 61° ENE 11:16:54 10° N visible
25 Mar 6.9 01:05:30 10° NNW 01:09:29 23° WNW 01:13:28 10° WSW visible
25 Mar 5.9 10:39:46 10° SE 10:44:22 32° ENE 10:48:58 10° N visible
26 Mar 6.8 10:13:43 10° ESE 10:17:05 18° ENE 10:20:26 10° NNE visible
26 Mar 4.3 11:51:19 10° S 11:56:19 46° W 12:01:19 10° NNW visible
27 Mar 4.1 11:23:31 10° SSE 11:28:45 89° WSW 11:34:00 10° NNW visible
28 Mar 7.1 01:23:23 10° NNW 01:26:20 15° WNW 01:29:17 10° W visible
28 Mar 5.1 10:56:18 10° SSE 11:01:18 48° ENE 11:06:18 10° N visible
29 Mar 6.3 10:29:42 10° SE 10:33:56 26° ENE 10:38:11 10° NNE visible
